Wind_Speed
9 8 8 8 8 9 9 9 9 8 8 7 7 7 7 8 8 8 9 9 10 10 11 12 12 13 13 13 13 13 13 13 13 13 11 11 10 9 8 7 6 6 5
10 9 9 9 10 10 11 12 12 11 11 11 11 10 10 10 10 11 11 10 11 11 12 12 12 13 13 13 13 14 14 14 14 14 13 12 11 10 9 8 7 5 4
10 10 10 11 12 12 13 14 14 14 14 14 14 14 14 13 13 13 13 12 12 12 12 12 13 13 13 13 13 14 14 14 14 14 14 13 12 11 10 9 7 5 3
11 11 12 12 14 15 16 16 17 17 17 17 17 17 17 17 16 16 15 15 14 14 13 14 13 13 13 13 13 13 13 14 14 14 14 14 13 12 11 9 8 5 4
13 14 15 16 16 17 18 19 20 20 21 21 21 20 20 20 20 19 18 17 17 16 15 15 14 14 13 13 13 13 13 13 13 13 13 13 13 12 11 10 8 6 5
17 18 20 20 20 21 22 23 23 24 24 24 24 24 23 23 23 22 21 20 20 19 17 16 16 15 14 14 13 13 13 13 13 13 12 12 12 11 10 9 8 6 6
20 21 22 23 24 24 25 26 27 27 28 27 27 27 26 26 25 25 24 23 22 21 20 19 18 17 16 15 14 13 12 13 13 12 12 11 11 11 10 9 8 7 6
21 22 23 24 25 26 26 28 29 29 30 30 30 29 29 29 28 28 27 26 25 24 23 22 20 19 18 16 15 14 13 13 13 12 11 11 11 10 10 9 8 7 7
22 23 23 23 24 25 25 27 28 29 30 31 31 32 32 32 31 30 29 27 27 26 24 23 22 20 19 18 16 15 14 13 13 13 12 11 11 10 10 9 9 8 9
22 22 23 23 24 24 24 25 26 27 28 29 30 31 32 32 32 32 31 30 29 28 26 25 23 21 20 18 17 17 16 14 14 14 12 12 11 11 10 10 9 9 10
20 21 21 22 22 23 24 24 24 25 26 28 29 30 31 33 33 33 32 32 31 30 29 27 25 23 22 20 19 18 18 17 16 15 13 13 12 12 11 11 10 10 11
19 20 20 20 21 21 22 23 23 24 25 26 28 29 30 31 32 33 34 33 33 33 31 29 28 26 24 22 20 19 19 18 17 16 15 14 13 13 12 12 11 11 12
17 17 18 18 18 19 19 20 21 23 24 24 26 27 29 30 32 32 33 33 32 33 32 30 29 27 25 23 21 20 19 19 19 17 16 15 14 14 13 13 13 12 12
15 16 16 16 17 17 18 19 20 20 21 22 23 24 26 28 30 31 32 32 32 32 32 31 30 28 26 25 22 20 20 20 20 19 17 16 15 15 14 14 13 13 13
14 15 16 16 17 17 17 18 18 19 19 20 20 22 23 25 27 28 30 32 32 32 31 31 31 30 26 25 23 22 21 21 21 20 19 17 16 16 15 15 15 14 14
14 15 16 17 17 18 18 17 18 17 17 16 17 18 20 21 24 25 27 29 31 31 30 30 31 30 28 26 24 23 23 22 22 21 21 19 18 17 16 16 16 15 16
14 15 16 17 18 18 18 18 18 17 16 15 15 16 17 18 20 22 24 26 28 29 29 29 30 31 30 28 25 24 24 23 23 23 22 21 20 19 18 18 17 17 16
14 15 16 17 18 19 19 19 19 18 17 16 15 15 15 16 17 18 21 22 24 26 27 27 28 30 30 29 27 26 25 25 24 23 24 23 22 21 20 20 19 19 18
13 15 16 17 19 19 19 20 20 19 18 17 15 15 14 14 15 15 17 19 21 22 24 25 26 27 29 29 29 29 27 26 26 26 25 25 24 23 23 22 21 21 20
13 14 16 17 19 20 20 20 20 20 19 18 17 16 15 13 12 12 12 14 17 19 21 23 24 25 27 28 29 30 29 28 27 28 28 27 27 25 24 24 24 23 22
12 14 16 18 19 20 20 21 21 20 20 20 19 17 16 14 11 9 9 9 12 16 19 21 22 25 26 27 28 29 31 30 29 29 30 29 29 28 27 25 26 26 25
12 14 16 17 18 19 20 21 21 21 21 21 20 19 17 14 12 10 8 8 9 12 15 18 20 22 25 26 26 27 29 31 30 30 30 31 31 30 29 28 27 27 27
11 14 16 17 18 19 20 21 22 22 22 22 21 20 18 16 14 11 9 7 7 8 12 15 18 20 22 24 25 26 28 29 31 31 32 32 32 32 32 31 30 29 28
10 13 15 16 17 19 20 21 21 22 22 22 22 21 19 17 15 13 11 9 7 7 8 11 15 18 20 22 24 25 27 29 30 31 32 34 34 34 34 34 33 32 31
10 12 14 16 17 18 19 20 21 22 22 22 22 21 20 19 17 15 12 10 8 7 8 9 12 15 18 21 22 25 27 29 30 31 32 35 36 35 36 36 35 35 34
9 11 13 15 17 18 19 20 21 21 22 22 22 21 20 19 18 16 14 11 10 8 8 8 10 12 15 18 21 23 25 27 30 31 32 33 35 35 36 37 38 37 37
Wind_Direction
302 300 300 295 290 288 289 291 291 285 281 274 266 259 256 255 257 258 258 256 259 262 264 264 264 266 269 271 269 268 267 267 269 268 270 275 282 288 297 306 319 333 351
300 296 293 292 286 284 286 287 289 285 280 277 273 271 267 264 262 261 262 260 261 264 266 265 266 266 266 267 267 267 266 264 265 265 264 269 275 280 285 292 300 313 331
303 296 287 286 284 283 283 283 283 284 281 278 276 275 272 269 267 265 264 263 265 268 268 267 267 266 266 266 266 266 264 262 263 264 262 264 270 274 276 280 284 291 297
303 296 292 289 285 282 281 280 278 279 279 278 275 273 272 272 270 269 266 266 266 268 269 270 268 267 266 265 265 266 262 260 262 263 261 261 266 268 268 271 272 269 259
296 292 289 287 284 279 276 275 273 274 275 275 273 272 271 270 268 269 268 267 266 266 268 271 267 266 267 266 266 265 262 259 261 263 261 260 262 264 262 264 262 252 239
293 291 288 285 282 277 275 273 272 271 271 271 270 270 269 268 267 267 266 266 269 268 267 268 267 265 266 266 265 263 260 258 259 261 261 258 259 259 258 259 248 237 227
292 291 289 286 282 278 275 274 273 270 269 268 267 267 268 267 266 265 265 264 266 267 265 265 266 263 262 264 262 259 257 255 256 257 256 257 256 254 251 249 240 228 217
294 292 290 288 285 282 279 276 274 271 268 266 265 264 264 265 264 262 261 262 262 264 264 262 262 262 260 260 258 255 253 252 253 253 253 253 252 249 244 239 234 222 211
299 296 294 291 288 285 282 279 276 273 270 266 264 263 262 261 262 262 260 260 261 263 261 260 259 259 258 257 255 251 249 249 249 248 248 248 248 245 239 233 229 219 209
304 303 301 298 294 291 287 283 279 275 273 270 266 264 260 259 259 260 258 258 259 258 258 257 256 256 255 253 250 247 245 244 244 244 243 242 243 240 235 231 227 218 211
311 310 308 304 300 296 293 288 284 280 275 272 269 266 262 260 259 259 257 257 257 256 255 255 254 253 252 250 247 244 241 240 240 239 238 237 237 235 234 230 224 216 210
319 318 315 312 308 304 299 294 289 285 280 275 270 268 265 262 259 257 255 255 255 254 253 253 252 252 249 246 244 241 238 236 235 235 234 233 232 232 231 228 222 213 209
329 328 327 324 319 315 310 304 298 292 287 281 275 270 266 263 261 258 255 254 254 253 252 252 253 252 248 244 242 237 234 234 232 232 232 232 230 230 229 223 218 212 208
342 343 342 339 333 328 322 317 310 302 294 286 280 274 269 265 262 259 256 254 253 252 251 250 249 249 246 243 239 236 233 231 229 229 229 231 230 228 226 221 217 213 210
353 354 353 349 344 339 333 327 321 314 305 296 286 279 273 269 265 261 258 253 251 250 249 247 245 245 245 241 238 236 234 229 227 226 228 230 231 229 225 220 218 216 214
5 4 2 359 354 350 345 340 334 327 319 310 300 289 280 273 268 263 259 253 250 248 245 244 243 242 243 240 239 236 232 230 228 228 229 230 229 228 226 221 218 216 215
10 8 5 2 359 356 354 351 347 341 333 323 313 302 291 282 275 266 259 254 249 246 244 242 241 240 241 241 238 235 231 230 230 230 230 230 229 227 226 223 219 217 216
14 10 7 5 4 2 0 359 356 351 345 337 328 316 305 294 283 274 263 255 248 244 243 242 241 239 240 239 235 236 234 232 231 229 230 230 229 227 225 224 222 220 218
18 14 12 11 10 7 4 3 1 358 354 348 342 333 322 310 295 282 271 258 249 244 242 242 242 240 239 238 236 235 233 235 234 231 231 229 229 228 226 224 223 221 219
22 19 18 17 15 12 9 7 5 3 0 357 352 347 339 330 316 297 282 264 250 245 242 241 240 239 238 238 235 234 232 233 235 232 231 230 228 227 226 225 223 222 221
25 23 21 19 17 15 13 10 9 7 6 3 0 357 351 344 336 322 302 277 257 248 243 242 240 238 238 239 236 234 233 233 234 233 231 230 228 227 226 226 223 222 222
27 25 23 20 18 16 15 13 12 11 9 8 6 4 1 356 349 338 323 298 271 254 245 242 241 238 237 237 236 234 233 234 232 232 231 229 228 228 226 225 224 224 223
27 26 22 19 18 16 15 14 14 13 12 11 10 9 7 6 1 353 341 322 295 269 252 245 243 243 240 236 236 235 233 234 233 231 230 229 227 225 224 225 225 225 224
27 25 21 18 17 16 15 14 13 13 13 12 11 10 10 8 6 2 354 340 318 294 270 255 249 245 241 238 236 236 234 233 233 231 230 229 228 227 226 226 226 226 225
27 23 19 16 15 14 13 13 13 12 12 12 12 11 11 10 7 4 358 349 333 308 286 269 259 251 245 241 239 238 236 235 233 232 231 230 230 230 229 228 227 227 228
24 19 15 13 12 11 10 10 10 10 10 11 11 11 10 9 8 6 3 355 344 325 303 283 269 261 252 247 245 241 239 237 235 234 232 231 230 230 231 230 227 228 229
Height
5882 5881 5881 5880 5880 5879 5878 5878 5877 5877 5877 5877 5877 5877 5878 5878 5879 5879 5879 5880 5880 5881 5881 5882 5882 5883 5883 5884 5884 5885 5886 5886 5887 5888 5889 5889 5890 5890 5890 5890 5890 5890 5890
5881 5880 5879 5879 5878 5877 5877 5876 5875 5875 5874 5874 5875 5875 5875 5875 5876 5876 5877 5877 5878 5878 5878 5879 5880 5880 5881 5881 5882 5883 5883 5884 5885 5886 5887 5888 5888 5889 5889 5889 5890 5890 5890
5879 5879 5878 5877 5876 5875 5875 5874 5873 5873 5872 5872 5872 5872 5872 5873 5873 5873 5874 5874 5875 5875 5876 5876 5877 5877 5878 5879 5879 5880 5881 5882 5883 5884 5885 5886 5887 5887 5888 5888 5888 5889 5889
5877 5876 5876 5875 5874 5873 5872 5871 5871 5870 5870 5869 5869 5869 5869 5870 5870 5870 5871 5871 5872 5872 5873 5873 5874 5875 5875 5876 5877 5878 5878 5879 5880 5881 5883 5884 5885 5886 5886 5887 5887 5888 5888
5875 5874 5873 5872 5871 5870 5869 5868 5868 5867 5866 5866 5866 5866 5866 5866 5867 5867 5868 5868 5869 5869 5870 5870 5871 5872 5873 5873 5874 5875 5876 5877 5878 5879 5880 5882 5883 5884 5884 5885 5886 5887 5887
5872 5871 5870 5869 5868 5867 5865 5864 5864 5863 5862 5862 5862 5862 5862 5862 5863 5863 5864 5865 5865 5866 5867 5867 5868 5869 5870 5871 5871 5872 5873 5874 5876 5877 5878 5879 5881 5882 5883 5884 5884 5885 5886
5869 5867 5866 5865 5863 5862 5861 5860 5859 5858 5858 5857 5857 5857 5857 5857 5858 5859 5859 5860 5861 5862 5863 5864 5865 5865 5867 5868 5868 5869 5871 5872 5873 5874 5876 5877 5879 5880 5881 5882 5883 5884 5885
5865 5863 5862 5860 5858 5857 5856 5854 5853 5853 5852 5851 5851 5851 5852 5852 5853 5853 5854 5855 5856 5857 5859 5859 5861 5862 5863 5864 5866 5867 5868 5869 5870 5872 5874 5875 5876 5878 5879 5880 5882 5883 5884
5860 5858 5857 5855 5853 5851 5850 5848 5847 5846 5845 5845 5844 5845 5845 5846 5847 5848 5849 5850 5851 5852 5854 5855 5856 5857 5859 5861 5862 5863 5865 5866 5868 5869 5871 5873 5874 5876 5877 5879 5880 5882 5883
5856 5854 5852 5849 5847 5846 5844 5842 5841 5840 5839 5838 5838 5838 5839 5839 5840 5841 5843 5844 5846 5847 5849 5850 5851 5853 5854 5856 5858 5860 5862 5864 5865 5867 5869 5871 5872 5874 5875 5877 5878 5880 5882
5852 5850 5847 5845 5842 5840 5838 5837 5835 5834 5833 5832 5831 5831 5832 5832 5833 5835 5836 5838 5839 5841 5843 5845 5846 5848 5850 5852 5854 5856 5858 5860 5862 5864 5866 5868 5870 5871 5873 5875 5876 5878 5880
5849 5846 5843 5841 5838 5835 5833 5831 5829 5828 5826 5826 5825 5825 5825 5825 5826 5828 5829 5830 5833 5835 5837 5839 5841 5843 5845 5847 5850 5852 5854 5857 5859 5861 5863 5865 5867 5869 5871 5873 5875 5877 5879
5846 5843 5840 5837 5834 5831 5829 5826 5824 5822 5820 5819 5818 5818 5818 5818 5819 5820 5821 5823 5825 5828 5830 5833 5835 5838 5840 5842 5845 5848 5850 5853 5855 5858 5860 5863 5865 5866 5868 5870 5872 5875 5877
5843 5840 5837 5834 5831 5828 5825 5822 5820 5817 5815 5813 5812 5812 5811 5811 5812 5813 5815 5816 5819 5821 5823 5826 5829 5832 5835 5837 5840 5843 5846 5849 5852 5854 5857 5860 5862 5864 5866 5868 5870 5873 5875
5841 5839 5836 5832 5829 5826 5823 5819 5816 5813 5810 5808 5807 5806 5805 5805 5805 5806 5807 5809 5811 5814 5817 5820 5823 5826 5829 5832 5835 5838 5841 5844 5847 5851 5853 5856 5859 5861 5863 5866 5868 5871 5873
5840 5837 5834 5831 5827 5824 5820 5817 5813 5810 5807 5804 5802 5801 5800 5799 5799 5799 5800 5802 5804 5807 5810 5813 5816 5820 5823 5827 5830 5833 5836 5840 5843 5846 5850 5853 5856 5858 5861 5863 5866 5868 5871
5839 5836 5833 5830 5826 5822 5819 5815 5811 5807 5804 5801 5799 5796 5795 5794 5793 5793 5794 5795 5798 5800 5803 5807 5810 5814 5817 5821 5825 5828 5832 5835 5839 5842 5846 5849 5852 5855 5858 5861 5863 5865 5868
5838 5836 5832 5829 5825 5821 5817 5813 5810 5806 5802 5799 5796 5793 5791 5789 5788 5787 5788 5789 5791 5794 5797 5801 5804 5808 5811 5815 5819 5823 5827 5830 5834 5838 5841 5845 5848 5851 5854 5857 5860 5862 5865
5838 5835 5832 5828 5825 5821 5817 5813 5809 5805 5801 5797 5794 5791 5788 5785 5783 5782 5782 5783 5786 5788 5792 5795 5798 5802 5805 5809 5813 5817 5821 5825 5829 5833 5837 5840 5844 5847 5850 5853 5856 5859 5862
5837 5835 5832 5828 5824 5820 5817 5813 5808 5804 5800 5796 5792 5789 5785 5782 5780 5779 5778 5779 5781 5784 5787 5790 5793 5796 5800 5803 5807 5811 5815 5819 5823 5827 5831 5835 5839 5842 5846 5849 5852 5856 5859
5837 5835 5831 5828 5824 5821 5817 5813 5809 5804 5800 5796 5792 5788 5784 5781 5778 5777 5776 5776 5778 5780 5782 5785 5788 5791 5794 5797 5801 5805 5809 5813 5818 5821 5825 5830 5833 5837 5841 5844 5848 5851 5854
5837 5834 5831 5828 5825 5821 5817 5813 5809 5805 5800 5796 5791 5787 5783 5780 5777 5776 5775 5774 5775 5777 5778 5781 5783 5786 5789 5792 5796 5799 5803 5808 5811 5815 5819 5824 5828 5832 5836 5839 5843 5846 5850
5837 5834 5831 5828 5825 5822 5818 5814 5810 5805 5801 5796 5792 5788 5784 5780 5777 5775 5774 5773 5773 5774 5775 5777 5779 5781 5784 5787 5790 5793 5797 5801 5805 5809 5813 5817 5822 5826 5830 5834 5838 5841 5845
5836 5834 5831 5829 5826 5822 5819 5815 5811 5806 5802 5797 5793 5789 5785 5781 5778 5775 5773 5772 5771 5771 5772 5773 5775 5777 5779 5781 5784 5787 5791 5795 5799 5803 5807 5811 5815 5819 5824 5828 5832 5836 5840
5836 5834 5831 5829 5826 5822 5819 5815 5811 5807 5803 5798 5794 5790 5786 5782 5778 5775 5773 5771 5770 5770 5770 5770 5771 5772 5774 5776 5779 5782 5785 5788 5792 5796 5800 5804 5808 5813 5817 5821 5825 5830 5834
5835 5833 5831 5829 5826 5822 5819 5815 5812 5808 5803 5799 5795 5791 5787 5783 5779 5776 5773 5771 5769 5768 5767 5767 5768 5768 5770 5771 5773 5776 5779 5782 5785 5789 5793 5797 5801 5805 5809 5814 5818 5823 5827